{"data":{"norad_id":56842,"intl_designator":"2023-079V","name":"STARLINK-30135","alt_names":[],"object_type":"PAYLOAD","status":"ACTIVE","operator":null,"country":"US","launch_date":"2023-06-04","launch_site_code":"AFETR","launch_vehicle":null,"mission":null,"orbit_class":"UNKNOWN","rcs_meters":null,"size_class":null,"mass_kg":null,"dimensions":null,"purposes":["comms"],"wikipedia_slug":null,"has_3d_model":false,"image_url":null,"decayed_at":null,"tle_current":{"epoch":"2026-09-20T22:00:36.933696Z","epoch_age_seconds":81612,"freshness":"FRESH","line1":"1 56842U 23079V   26263.91709414  .00000533  00000+0  28903-4 0  9996","line2":"2 56842  43.0018  84.5919 0001139 254.4525 105.6201 15.27579100182744","mean_motion":15.275791,"eccentricity":0.0001139,"inclination_deg":43.0018,"raan_deg":84.5919,"arg_perigee_deg":254.4525,"mean_anomaly_deg":105.6201,"bstar":2.8903e-5,"rev_number":18274,"period_min":94.266804252559,"perigee_km":482.27030156146,"apogee_km":483.83328036804,"semimajor_km":6861.1887909647,"source":"CELESTRAK","updated_at":"2026-09-21T09:00:33.518292Z"}}}